Starlink 11618

operational
NORAD ID: 63185 Int'l Des: 2025-048 Owner: SPXS Country: US Constellation: starlink
LEOCIRCULAR

Starlink 11618について

説明を読み込み中...

リアルタイム位置

3D地球を読み込み中...

次回通過

高度履歴

Altitude vs Time

uPlot chart will show altitude changes over time

軌道要素

1 63185U 25048C 25303.59935631 .00354309 00000-0 26396-2 0 9998
2 63185 42.9992 23.8338 0001251 359.1321 0.9544 15.70921878 38056
Epoch: Oct 30, 2025 • Age: 16 hours

現在のステータス

高度 354.8 km
速度 7.70 km/s
衛星直下点 17.65°N, 45.81°E
打ち上げ日 Mar 13, 2025
運用期間 0.6 years
タイプ internet

技術仕様

分類 Payload
質量 960.00 kg
乾燥質量 910.00 kg
総質量 960.00 kg
長さ 0.30 m
直径 4.10 m
スパン 29.00 m
形状 Box + pan
製造者 SPXS
バスタイプ Starlink V2MD
フェーズステータス In Orbit
所有者/国 SPXS/US

大規模コンステレーション

Loading constellations...